Location: Newark
(56.0692°N, 115.8617°E)
Time: 12:48:28
(UTC+00:00)

Vanguard 2 Rocket - Pass Details

Date: 04 June 2020
Orbit: 556 x 3325 km, 32.9° (Epoch: 14 July)

Event Time Altitude Azimuth Distance (km) Brightness Sun altitude
Rises 11:58:28 0° 251° (WSW) 5,246 11.4 5.3°
Reaches altitude 10° 12:06:44 10° 218° (SW) 5,055 10.8 4.4°
Maximum altitude 12:09:04 11° 209° (SSW) 5,204 10.7 4.1°
Drops below altitude 10° 12:11:33 10° 199° (SSW) 5,440 10.7 3.8°
Sets 12:22:58 0° 169° (S) 7,094 11.0 2.6°
